Total_Precipitation_Accumulation
0.31 0.30 0.38 0.58 0.67 0.60 0.64 0.75 1.00 0.90 0.77 0.72 0.66 0.68 0.71 0.77 0.81 0.82 0.87 0.87 0.80 0.77 0.78 0.83 0.81 0.76 0.83 0.93 1.02 1.13 1.18 1.09 1.00 0.89 0.77 0.71 0.74 0.71 0.75 0.82 0.81 0.83 0.86 0.96
0.16 0.15 0.25 0.49 0.59 0.59 0.58 0.58 0.61 0.55 0.53 0.44 0.42 0.48 0.52 0.59 0.57 0.59 0.63 0.64 0.60 0.55 0.53 0.57 0.51 0.52 0.57 0.68 0.84 1.03 1.10 0.98 0.85 0.77 0.75 0.68 0.65 0.62 0.62 0.65 0.68 0.71 0.75 0.90
0.23 0.18 0.27 0.50 0.51 0.54 0.41 0.29 0.28 0.35 0.35 0.28 0.29 0.39 0.44 0.51 0.51 0.47 0.50 0.53 0.55 0.52 0.46 0.48 0.44 0.45 0.54 0.61 0.75 0.83 0.86 0.79 0.69 0.63 0.61 0.56 0.53 0.54 0.57 0.58 0.60 0.63 0.66 0.80
0.35 0.34 0.56 0.68 0.53 0.46 0.38 0.24 0.17 0.19 0.20 0.21 0.24 0.32 0.35 0.40 0.46 0.42 0.39 0.43 0.49 0.51 0.48 0.49 0.52 0.54 0.63 0.69 0.69 0.72 0.76 0.74 0.66 0.59 0.54 0.50 0.47 0.49 0.59 0.60 0.56 0.59 0.62 0.64
0.46 0.49 0.54 0.52 0.36 0.34 0.44 0.41 0.20 0.15 0.16 0.17 0.20 0.25 0.25 0.27 0.31 0.31 0.27 0.25 0.27 0.31 0.33 0.38 0.42 0.46 0.48 0.49 0.51 0.52 0.55 0.60 0.54 0.46 0.48 0.53 0.49 0.54 0.57 0.58 0.60 0.60 0.62 0.63
0.53 0.54 0.59 0.43 0.21 0.18 0.33 0.56 0.25 0.12 0.10 0.09 0.12 0.19 0.16 0.15 0.16 0.16 0.16 0.15 0.15 0.15 0.17 0.20 0.25 0.35 0.40 0.37 0.32 0.32 0.34 0.39 0.39 0.36 0.39 0.48 0.57 0.63 0.59 0.55 0.59 0.61 0.58 0.55
0.61 0.72 0.78 0.53 0.27 0.21 0.44 0.56 0.24 0.11 0.07 0.07 0.07 0.08 0.09 0.10 0.11 0.10 0.11 0.13 0.15 0.13 0.14 0.17 0.21 0.24 0.28 0.34 0.30 0.27 0.27 0.29 0.30 0.30 0.34 0.43 0.49 0.48 0.47 0.49 0.52 0.53 0.54 0.52
0.78 0.98 1.09 0.69 0.46 0.44 0.41 0.26 0.15 0.09 0.07 0.07 0.07 0.07 0.07 0.09 0.09 0.08 0.09 0.10 0.11 0.12 0.15 0.19 0.19 0.17 0.20 0.23 0.23 0.25 0.24 0.25 0.25 0.23 0.24 0.27 0.34 0.38 0.40 0.42 0.42 0.41 0.43 0.42
0.84 0.86 0.75 0.54 0.45 0.35 0.27 0.19 0.11 0.10 0.08 0.07 0.06 0.06 0.07 0.07 0.08 0.08 0.07 0.08 0.09 0.14 0.17 0.19 0.18 0.16 0.17 0.18 0.21 0.25 0.25 0.23 0.22 0.22 0.22 0.24 0.29 0.33 0.36 0.39 0.40 0.38 0.35 0.36
0.37 0.38 0.35 0.29 0.25 0.21 0.16 0.14 0.10 0.09 0.08 0.09 0.09 0.08 0.08 0.08 0.08 0.09 0.08 0.08 0.10 0.15 0.17 0.18 0.17 0.19 0.20 0.20 0.19 0.22 0.21 0.21 0.21 0.22 0.23 0.23 0.26 0.32 0.38 0.37 0.33 0.32 0.34 0.37
0.21 0.18 0.19 0.18 0.17 0.15 0.14 0.12 0.10 0.08 0.08 0.09 0.09 0.09 0.08 0.09 0.12 0.12 0.11 0.10 0.11 0.13 0.16 0.16 0.19 0.21 0.22 0.21 0.18 0.19 0.19 0.18 0.19 0.20 0.22 0.23 0.21 0.23 0.29 0.31 0.29 0.31 0.34 0.38
0.18 0.11 0.13 0.15 0.12 0.11 0.12 0.12 0.11 0.10 0.10 0.09 0.07 0.09 0.10 0.10 0.14 0.15 0.12 0.10 0.11 0.11 0.13 0.15 0.17 0.21 0.23 0.25 0.24 0.22 0.20 0.20 0.20 0.20 0.21 0.20 0.20 0.21 0.23 0.22 0.25 0.25 0.24 0.26
0.12 0.08 0.08 0.10 0.09 0.08 0.09 0.08 0.09 0.09 0.11 0.10 0.09 0.11 0.11 0.10 0.14 0.15 0.14 0.14 0.14 0.12 0.12 0.13 0.15 0.18 0.19 0.24 0.25 0.25 0.24 0.23 0.21 0.21 0.19 0.18 0.19 0.22 0.24 0.21 0.18 0.17 0.17 0.16
0.07 0.07 0.09 0.10 0.10 0.08 0.08 0.08 0.11 0.12 0.12 0.12 0.11 0.11 0.10 0.10 0.12 0.11 0.13 0.16 0.17 0.14 0.14 0.15 0.15 0.17 0.21 0.26 0.26 0.28 0.30 0.31 0.26 0.22 0.21 0.21 0.22 0.25 0.31 0.33 0.27 0.19 0.18 0.17
0.09 0.09 0.12 0.13 0.12 0.10 0.08 0.09 0.11 0.11 0.12 0.12 0.10 0.09 0.09 0.11 0.12 0.12 0.12 0.12 0.12 0.13 0.13 0.15 0.15 0.16 0.21 0.22 0.23 0.26 0.31 0.33 0.33 0.32 0.28 0.26 0.26 0.30 0.33 0.31 0.26 0.21 0.18 0.18
0.13 0.10 0.11 0.11 0.12 0.10 0.08 0.09 0.09 0.09 0.10 0.10 0.09 0.10 0.10 0.11 0.13 0.16 0.14 0.11 0.10 0.11 0.11 0.14 0.15 0.16 0.18 0.17 0.17 0.18 0.22 0.28 0.31 0.33 0.32 0.29 0.27 0.27 0.29 0.27 0.23 0.21 0.21 0.19
0.11 0.12 0.13 0.13 0.12 0.11 0.10 0.09 0.08 0.08 0.07 0.07 0.08 0.09 0.10 0.10 0.10 0.15 0.16 0.14 0.14 0.13 0.13 0.14 0.16 0.15 0.15 0.13 0.14 0.15 0.16 0.18 0.21 0.25 0.28 0.27 0.26 0.23 0.26 0.28 0.24 0.22 0.21 0.21
0.08 0.09 0.12 0.13 0.13 0.14 0.13 0.10 0.08 0.07 0.07 0.06 0.06 0.08 0.09 0.10 0.11 0.14 0.17 0.17 0.17 0.16 0.14 0.15 0.15 0.14 0.13 0.14 0.14 0.15 0.15 0.14 0.15 0.18 0.23 0.26 0.26 0.24 0.24 0.27 0.27 0.25 0.25 0.25
0.07 0.08 0.11 0.11 0.10 0.12 0.13 0.13 0.11 0.10 0.08 0.06 0.05 0.06 0.09 0.10 0.12 0.14 0.14 0.15 0.18 0.22 0.22 0.21 0.21 0.18 0.16 0.17 0.17 0.14 0.13 0.13 0.15 0.18 0.20 0.23 0.25 0.24 0.24 0.25 0.26 0.27 0.26 0.25
0.09 0.12 0.15 0.13 0.11 0.09 0.11 0.13 0.13 0.14 0.13 0.11 0.08 0.08 0.10 0.10 0.11 0.11 0.11 0.11 0.14 0.18 0.21 0.26 0.26 0.24 0.22 0.21 0.21 0.18 0.17 0.18 0.20 0.22 0.22 0.22 0.22 0.24 0.25 0.24 0.25 0.26 0.28 0.28
0.13 0.18 0.17 0.15 0.11 0.08 0.08 0.09 0.11 0.12 0.13 0.12 0.12 0.12 0.13 0.12 0.11 0.11 0.11 0.12 0.13 0.14 0.14 0.19 0.23 0.26 0.26 0.27 0.27 0.23 0.21 0.21 0.22 0.23 0.24 0.24 0.23 0.23 0.24 0.25 0.26 0.29 0.31 0.30
0.17 0.16 0.14 0.15 0.12 0.09 0.08 0.08 0.09 0.09 0.10 0.10 0.10 0.12 0.12 0.12 0.11 0.11 0.12 0.14 0.15 0.16 0.15 0.15 0.17 0.24 0.32 0.32 0.26 0.24 0.24 0.23 0.24 0.23 0.23 0.24 0.26 0.27 0.27 0.29 0.29 0.30 0.30 0.31
0.17 0.16 0.17 0.17 0.15 0.11 0.09 0.07 0.08 0.08 0.09 0.09 0.09 0.10 0.10 0.11 0.12 0.14 0.14 0.13 0.15 0.18 0.16 0.15 0.19 0.24 0.30 0.28 0.26 0.25 0.24 0.23 0.22 0.22 0.24 0.26 0.27 0.29 0.31 0.32 0.32 0.32 0.34 0.37
0.15 0.16 0.19 0.19 0.18 0.16 0.13 0.11 0.10 0.11 0.12 0.12 0.13 0.13 0.13 0.14 0.15 0.16 0.17 0.16 0.19 0.21 0.18 0.21 0.25 0.30 0.32 0.23 0.23 0.27 0.29 0.29 0.27 0.26 0.27 0.28 0.29 0.30 0.33 0.34 0.34 0.35 0.38 0.43
0.14 0.14 0.18 0.21 0.20 0.18 0.15 0.14 0.13 0.13 0.14 0.14 0.16 0.17 0.17 0.17 0.18 0.19 0.19 0.19 0.23 0.27 0.26 0.29 0.32 0.34 0.33 0.30 0.28 0.28 0.31 0.33 0.37 0.36 0.33 0.34 0.34 0.35 0.37 0.39 0.40 0.40 0.41 0.43
0.16 0.14 0.17 0.20 0.20 0.18 0.16 0.17 0.17 0.17 0.18 0.17 0.18 0.20 0.21 0.22 0.24 0.26 0.27 0.27 0.28 0.32 0.32 0.31 0.32 0.34 0.34 0.38 0.40 0.39 0.38 0.39 0.38 0.37 0.35 0.37 0.39 0.39 0.40 0.42 0.45 0.48 0.49 0.48
0.17 0.16 0.17 0.19 0.20 0.18 0.17 0.19 0.20 0.21 0.23 0.23 0.23 0.24 0.23 0.24 0.27 0.29 0.30 0.30 0.31 0.33 0.36 0.37 0.37 0.37 0.36 0.39 0.43 0.45 0.45 0.43 0.43 0.42 0.41 0.43 0.44 0.45 0.44 0.44 0.48 0.52 0.54 0.54